| time (UTC) | temp F | wind direction | speed MPH | gust MPH | rain 1hr in | rain 24hr in | rain mn in | humidity % | barometer mb |
| 20260507140057 | 49 | 201 | 4.0 | 7.0 | 0.00 | 0.03 | 0.00 | 77 | 1016.2 |
| 20260507135559 | 49 | 232 | 3.0 | 7.0 | 0.00 | 0.03 | 0.00 | 78 | 1016.3 |
| 20260507135100 | 48 | 227 | 2.0 | 6.0 | 0.00 | 0.03 | 0.00 | 78 | 1016.2 |
| 20260507134601 | 48 | 186 | 2.0 | 8.0 | 0.00 | 0.03 | 0.00 | 78 | 1016.1 |
| 20260507134057 | 48 | 205 | 3.0 | 9.0 | 0.00 | 0.03 | 0.00 | 78 | 1016.2 |
| 20260507133601 | 48 | 209 | 4.0 | 10.0 | 0.00 | 0.03 | 0.00 | 78 | 1016.2 |
| 20260507133109 | 48 | 202 | 2.0 | 10.0 | 0.00 | 0.03 | 0.00 | 78 | 1015.9 |
| 20260507132559 | 48 | 209 | 3.0 | 10.0 | 0.00 | 0.03 | 0.00 | 78 | 1015.9 |
| 20260507132059 | 48 | 229 | 5.0 | 10.0 | 0.00 | 0.03 | 0.00 | 78 | 1015.9 |
| 20260507131612 | 48 | 229 | 3.0 | 7.0 | 0.00 | 0.03 | 0.00 | 77 | 1016.0 |
| 20260507131100 | 48 | 213 | 4.0 | 9.0 | 0.00 | 0.03 | 0.00 | 77 | 1016.1 |
| 20260507130558 | 48 | 217 | 5.0 | 12.0 | 0.00 | 0.03 | 0.00 | 77 | 1016.2 |
| 20260507130059 | 48 | 241 | 5.0 | 12.0 | 0.00 | 0.03 | 0.00 | 76 | 1016.1 |
| 20260507125600 | 48 | 221 | 8.0 | 12.0 | 0.00 | 0.03 | 0.00 | 77 | 1016.1 |
| 20260507125100 | 48 | 213 | 6.0 | 11.0 | 0.00 | 0.03 | 0.00 | 78 | 1016.0 |
| 20260507124603 | 47 | 223 | 3.0 | 8.0 | 0.00 | 0.03 | 0.00 | 78 | 1016.1 |
| 20260507124059 | 48 | 250 | 4.0 | 9.0 | 0.00 | 0.03 | 0.00 | 78 | 1016.1 |
| 20260507123600 | 47 | 210 | 4.0 | 9.0 | 0.00 | 0.03 | 0.00 | 78 | 1016.2 |
| 20260507123058 | 47 | 241 | 5.0 | 9.0 | 0.00 | 0.03 | 0.00 | 78 | 1016.3 |
| 20260507122557 | 47 | 238 | 4.0 | 9.0 | 0.00 | 0.03 | 0.00 | 78 | 1016.3 |
| 20260507122102 | 47 | 253 | 4.0 | 8.0 | 0.00 | 0.03 | 0.00 | 78 | 1016.3 |
| 20260507121601 | 47 | 248 | 4.0 | 7.0 | 0.00 | 0.03 | 0.00 | 78 | 1016.4 |
| 20260507121101 | 47 | 247 | 2.0 | 6.0 | 0.00 | 0.03 | 0.00 | 77 | 1016.3 |
| 20260507120559 | 48 | 236 | 1.0 | 6.0 | 0.00 | 0.03 | 0.00 | 76 | 1016.3 |
| 20260507120100 | 48 | 232 | 3.0 | 7.0 | 0.00 | 0.03 | 0.00 | 77 | 1016.3 |
| 20260507115600 | 48 | 221 | 3.0 | 8.0 | 0.00 | 0.03 | 0.00 | 78 | 1016.3 |
| 20260507115101 | 47 | 246 | 3.0 | 8.0 | 0.00 | 0.03 | 0.00 | 80 | 1016.3 |
| 20260507114559 | 45 | 228 | 2.0 | 4.0 | 0.00 | 0.03 | 0.00 | 81 | 1016.3 |
| 20260507114059 | 44 | 224 | 1.0 | 4.0 | 0.00 | 0.03 | 0.00 | 82 | 1016.4 |
| 20260507113601 | 44 | 0 | 0.0 | 2.0 | 0.00 | 0.03 | 0.00 | 80 | 1016.4 |
| 20260507113102 | 44 | 0 | 0.0 | 2.0 | 0.00 | 0.03 | 0.00 | 80 | 1016.4 |
| 20260507112603 | 44 | 0 | 0.0 | 2.0 | 0.00 | 0.03 | 0.00 | 79 | 1016.4 |
| 20260507112104 | 44 | 0 | 0.0 | 2.0 | 0.00 | 0.03 | 0.00 | 76 | 1016.5 |
| 20260507111602 | 45 | 0 | 0.0 | 2.0 | 0.00 | 0.03 | 0.00 | 77 | 1016.5 |
| 20260507111100 | 46 | 0 | 0.0 | 1.0 | 0.00 | 0.03 | 0.00 | 76 | 1016.5 |
| 20260507110600 | 46 | 0 | 0.0 | 1.0 | 0.00 | 0.03 | 0.00 | 76 | 1016.6 |
| 20260507110059 | 47 | 0 | 0.0 | 1.0 | 0.00 | 0.03 | 0.00 | 75 | 1016.5 |
| 20260507105600 | 48 | 0 | 0.0 | 2.0 | 0.00 | 0.03 | 0.00 | 74 | 1016.4 |
| 20260507105100 | 48 | 0 | 0.0 | 2.0 | 0.00 | 0.03 | 0.00 | 74 | 1016.4 |
| 20260507104601 | 48 | 0 | 0.0 | 2.0 | 0.00 | 0.03 | 0.00 | 74 | 1016.4 |
| 20260507104100 | 48 | 202 | 0.0 | 4.0 | 0.00 | 0.03 | 0.00 | 74 | 1016.2 |
| 20260507103601 | 49 | 202 | 1.0 | 5.0 | 0.00 | 0.03 | 0.00 | 74 | 1016.2 |
| 20260507103100 | 49 | 227 | 2.0 | 5.0 | 0.00 | 0.03 | 0.00 | 73 | 1016.1 |
| 20260507102559 | 49 | 190 | 1.0 | 4.0 | 0.00 | 0.03 | 0.00 | 73 | 1016.2 |
| 20260507102104 | 49 | 190 | 1.0 | 4.0 | 0.00 | 0.03 | 0.00 | 72 | 1016.3 |
| 20260507101559 | 50 | 194 | 2.0 | 5.0 | 0.00 | 0.03 | 0.00 | 72 | 1016.4 |
| 20260507101058 | 50 | 219 | 2.0 | 5.0 | 0.00 | 0.03 | 0.00 | 72 | 1016.4 |
| 20260507100600 | 50 | 225 | 2.0 | 5.0 | 0.00 | 0.03 | 0.00 | 71 | 1016.5 |
| 20260507100058 | 50 | 213 | 2.0 | 4.0 | 0.00 | 0.03 | 0.00 | 71 | 1016.4 |
| 20260507095557 | 51 | 209 | 2.0 | 6.0 | 0.00 | 0.03 | 0.00 | 71 | 1016.5 |
| 20260507095100 | 51 | 192 | 2.0 | 6.0 | 0.00 | 0.03 | 0.00 | 70 | 1016.4 |
| 20260507094559 | 51 | 230 | 2.0 | 6.0 | 0.00 | 0.03 | 0.00 | 71 | 1016.5 |
| 20260507094103 | 51 | 203 | 2.0 | 7.0 | 0.00 | 0.03 | 0.00 | 71 | 1016.4 |
| 20260507093559 | 51 | 225 | 3.0 | 7.0 | 0.00 | 0.03 | 0.00 | 72 | 1016.3 |
| 20260507093111 | 50 | 232 | 3.0 | 7.0 | 0.00 | 0.03 | 0.00 | 72 | 1016.3 |
| 20260507092603 | 50 | 221 | 3.0 | 5.0 | 0.00 | 0.03 | 0.00 | 73 | 1016.3 |
| 20260507092059 | 50 | 229 | 2.0 | 5.0 | 0.00 | 0.03 | 0.00 | 73 | 1016.4 |
| 20260507091600 | 49 | 243 | 1.0 | 3.0 | 0.00 | 0.03 | 0.00 | 73 | 1016.5 |
| 20260507091102 | 50 | 252 | 1.0 | 4.0 | 0.00 | 0.03 | 0.00 | 72 | 1016.5 |
| 20260507090559 | 50 | 252 | 1.0 | 5.0 | 0.00 | 0.03 | 0.00 | 72 | 1016.5 |
| 20260507090101 | 50 | 251 | 1.0 | 5.0 | 0.00 | 0.03 | 0.00 | 72 | 1016.5 |
| 20260507085557 | 50 | 252 | 1.0 | 4.0 | 0.00 | 0.03 | 0.00 | 71 | 1016.5 |
| 20260507085057 | 50 | 0 | 1.0 | 4.0 | 0.00 | 0.03 | 0.00 | 71 | 1016.5 |
| 20260507084557 | 50 | 252 | 1.0 | 7.0 | 0.00 | 0.03 | 0.00 | 71 | 1016.5 |
| 20260507084057 | 50 | 0 | 1.0 | 7.0 | 0.00 | 0.03 | 0.00 | 71 | 1016.5 |
| 20260507083601 | 51 | 248 | 2.0 | 7.0 | 0.00 | 0.03 | 0.00 | 71 | 1016.4 |
| 20260507083102 | 51 | 247 | 1.0 | 6.0 | 0.00 | 0.03 | 0.00 | 70 | 1016.4 |
| 20260507082601 | 51 | 258 | 2.0 | 8.0 | 0.00 | 0.03 | 0.00 | 70 | 1016.5 |
| 20260507082104 | 51 | 0 | 2.0 | 8.0 | 0.00 | 0.03 | 0.00 | 68 | 1016.5 |
| 20260507081607 | 52 | 228 | 4.0 | 8.0 | 0.00 | 0.03 | 0.00 | 68 | 1016.5 |
| 20260507081059 | 52 | 221 | 5.0 | 8.0 | 0.00 | 0.03 | 0.00 | 68 | 1016.5 |
| 20260507080603 | 52 | 229 | 4.0 | 9.0 | 0.00 | 0.03 | 0.00 | 67 | 1016.4 |
| 20260507080116 | 52 | 185 | 5.0 | 9.0 | 0.00 | 0.03 | 0.00 | 67 | 1016.4 |
| 20260507075559 | 53 | 240 | 4.0 | 8.0 | 0.00 | 0.03 | 0.00 | 67 | 1016.3 |
| 20260507075100 | 52 | 214 | 4.0 | 7.0 | 0.00 | 0.03 | 0.00 | 67 | 1016.3 |
| 20260507074600 | 52 | 235 | 2.0 | 9.0 | 0.00 | 0.03 | 0.00 | 66 | 1016.4 |
| 20260507074059 | 53 | 255 | 3.0 | 9.0 | 0.00 | 0.03 | 0.00 | 65 | 1016.4 |
| 20260507073559 | 53 | 227 | 3.0 | 8.0 | 0.00 | 0.03 | 0.00 | 65 | 1016.6 |
| 20260507073100 | 54 | 219 | 3.0 | 8.0 | 0.00 | 0.03 | 0.00 | 64 | 1016.4 |
| 20260507072601 | 54 | 205 | 3.0 | 7.0 | 0.00 | 0.03 | 0.00 | 62 | 1016.4 |
| 20260507072056 | 54 | 211 | 3.0 | 7.0 | 0.00 | 0.03 | 0.00 | 61 | 1016.4 |
| 20260507071611 | 54 | 214 | 3.0 | 7.0 | 0.00 | 0.03 | 0.00 | 60 | 1016.4 |
| 20260507071102 | 54 | 215 | 4.0 | 9.0 | 0.00 | 0.03 | 0.00 | 59 | 1016.4 |
| 20260507070600 | 54 | 224 | 4.0 | 9.0 | 0.00 | 0.03 | 0.00 | 58 | 1016.5 |
| 20260507070101 | 55 | 215 | 4.0 | 9.0 | 0.00 | 0.03 | 0.00 | 57 | 1016.6 |
| 20260507065600 | 55 | 223 | 3.0 | 8.0 | 0.00 | 0.03 | 0.03 | 55 | 1016.5 |
| 20260507065101 | 55 | 225 | 3.0 | 8.0 | 0.00 | 0.03 | 0.03 | 53 | 1016.5 |
| 20260507064600 | 55 | 211 | 2.0 | 10.0 | 0.00 | 0.03 | 0.03 | 53 | 1016.5 |
| 20260507064059 | 56 | 226 | 4.0 | 11.0 | 0.00 | 0.03 | 0.03 | 52 | 1016.5 |
| 20260507063559 | 56 | 228 | 5.0 | 13.0 | 0.00 | 0.03 | 0.03 | 52 | 1016.4 |
| 20260507063104 | 56 | 202 | 7.0 | 13.0 | 0.00 | 0.03 | 0.03 | 52 | 1016.5 |
| 20260507062558 | 56 | 220 | 4.0 | 10.0 | 0.00 | 0.03 | 0.03 | 52 | 1016.6 |
| 20260507062059 | 56 | 230 | 2.0 | 10.0 | 0.00 | 0.03 | 0.03 | 51 | 1016.6 |
| 20260507061601 | 57 | 205 | 4.0 | 10.0 | 0.00 | 0.03 | 0.03 | 50 | 1016.7 |
| 20260507061057 | 57 | 209 | 5.0 | 11.0 | 0.00 | 0.03 | 0.03 | 49 | 1016.8 |
| 20260507060559 | 57 | 248 | 4.0 | 11.0 | 0.00 | 0.03 | 0.03 | 49 | 1016.8 |
| 20260507055600 | 58 | 320 | 6.0 | 16.0 | 0.00 | 0.03 | 0.03 | 47 | 1016.8 |
| 20260507055100 | 58 | 236 | 8.0 | 16.0 | 0.00 | 0.03 | 0.03 | 47 | 1016.8 |
| 20260507054603 | 58 | 246 | 6.0 | 15.0 | 0.00 | 0.03 | 0.03 | 47 | 1016.9 |
| 20260507054059 | 58 | 248 | 8.0 | 15.0 | 0.00 | 0.03 | 0.03 | 47 | 1016.9 |
| 20260507053600 | 58 | 242 | 6.0 | 13.0 | 0.00 | 0.03 | 0.03 | 48 | 1017.0 |
| 20260507053129 | 58 | 253 | 5.0 | 10.0 | 0.00 | 0.03 | 0.03 | 49 | 1017.0 |
| 20260507052559 | 58 | 261 | 4.0 | 10.0 | 0.00 | 0.03 | 0.03 | 48 | 1017.0 |
| 20260507052100 | 58 | 265 | 4.0 | 14.0 | 0.00 | 0.03 | 0.03 | 48 | 1017.1 |
| 20260507051605 | 58 | 267 | 4.0 | 14.0 | 0.00 | 0.03 | 0.03 | 47 | 1017.2 |
| 20260507051059 | 58 | 259 | 6.0 | 14.0 | 0.00 | 0.03 | 0.03 | 47 | 1017.1 |
| 20260507050600 | 58 | 251 | 5.0 | 11.0 | 0.00 | 0.03 | 0.03 | 46 | 1017.1 |
| 20260507050108 | 59 | 233 | 6.0 | 11.0 | 0.00 | 0.03 | 0.03 | 45 | 1017.1 |
| 20260507045600 | 59 | 244 | 6.0 | 11.0 | 0.00 | 0.03 | 0.03 | 45 | 1017.0 |
| 20260507045058 | 59 | 249 | 6.0 | 14.0 | 0.00 | 0.03 | 0.03 | 46 | 1017.0 |
| 20260507044605 | 59 | 292 | 8.0 | 17.0 | 0.00 | 0.03 | 0.03 | 45 | 1017.1 |
| 20260507044056 | 59 | 277 | 10.0 | 17.0 | 0.00 | 0.03 | 0.03 | 45 | 1017.1 |
| 20260507043559 | 60 | 252 | 10.0 | 17.0 | 0.00 | 0.03 | 0.03 | 45 | 1017.1 |
| 20260507043057 | 60 | 295 | 10.0 | 17.0 | 0.00 | 0.03 | 0.03 | 46 | 1017.0 |
| 20260507042600 | 60 | 269 | 9.0 | 19.0 | 0.00 | 0.03 | 0.03 | 46 | 1017.0 |
| 20260507042103 | 60 | 281 | 8.0 | 19.0 | 0.00 | 0.03 | 0.03 | 46 | 1017.0 |
| 20260507041600 | 60 | 264 | 12.0 | 19.0 | 0.00 | 0.03 | 0.03 | 46 | 1016.7 |
| 20260507041101 | 59 | 298 | 10.0 | 15.0 | 0.00 | 0.03 | 0.03 | 48 | 1016.6 |
| 20260507040559 | 59 | 280 | 4.0 | 9.0 | 0.00 | 0.03 | 0.03 | 50 | 1016.9 |
| 20260507040109 | 60 | 211 | 4.0 | 11.0 | 0.00 | 0.03 | 0.03 | 50 | 1016.9 |
| 20260507035559 | 60 | 283 | 6.0 | 11.0 | 0.00 | 0.03 | 0.03 | 50 | 1016.7 |
| 20260507035058 | 60 | 257 | 5.0 | 10.0 | 0.00 | 0.03 | 0.03 | 49 | 1016.7 |
| 20260507034558 | 61 | 261 | 3.0 | 12.0 | 0.00 | 0.03 | 0.03 | 48 | 1016.6 |
| 20260507034059 | 61 | 262 | 7.0 | 12.0 | 0.00 | 0.03 | 0.03 | 47 | 1016.7 |
| 20260507033600 | 61 | 265 | 5.0 | 13.0 | 0.00 | 0.03 | 0.03 | 46 | 1016.7 |
| 20260507033100 | 62 | 248 | 9.0 | 16.0 | 0.00 | 0.03 | 0.03 | 46 | 1016.6 |
| 20260507032559 | 62 | 279 | 9.0 | 16.0 | 0.00 | 0.03 | 0.03 | 45 | 1016.5 |
| 20260507032057 | 62 | 263 | 9.0 | 16.0 | 0.00 | 0.03 | 0.03 | 45 | 1016.4 |
| 20260507031558 | 63 | 268 | 8.0 | 16.0 | 0.00 | 0.03 | 0.03 | 44 | 1016.4 |
| 20260507031057 | 63 | 272 | 9.0 | 18.0 | 0.00 | 0.03 | 0.03 | 44 | 1016.4 |
| 20260507030556 | 63 | 254 | 10.0 | 18.0 | 0.00 | 0.03 | 0.03 | 44 | 1016.3 |
| 20260507030059 | 63 | 292 | 11.0 | 18.0 | 0.00 | 0.03 | 0.03 | 44 | 1016.4 |
| 20260507025559 | 62 | 278 | 10.0 | 18.0 | 0.00 | 0.03 | 0.03 | 45 | 1016.3 |
| 20260507025059 | 62 | 278 | 10.0 | 15.0 | 0.00 | 0.03 | 0.03 | 46 | 1016.3 |
| 20260507024604 | 62 | 270 | 10.0 | 16.0 | 0.00 | 0.03 | 0.03 | 47 | 1016.2 |
| 20260507024059 | 62 | 285 | 9.0 | 16.0 | 0.00 | 0.03 | 0.03 | 47 | 1016.2 |
| 20260507023602 | 62 | 266 | 9.0 | 16.0 | 0.00 | 0.03 | 0.03 | 47 | 1016.2 |
| 20260507023059 | 63 | 298 | 11.0 | 17.0 | 0.00 | 0.03 | 0.03 | 46 | 1016.2 |
| 20260507022600 | 63 | 286 | 10.0 | 17.0 | 0.00 | 0.03 | 0.03 | 45 | 1016.2 |
| 20260507022100 | 63 | 292 | 12.0 | 17.0 | 0.00 | 0.03 | 0.03 | 45 | 1016.2 |
| 20260507021559 | 63 | 276 | 10.0 | 18.0 | 0.00 | 0.03 | 0.03 | 45 | 1016.2 |
| 20260507021057 | 64 | 300 | 13.0 | 19.0 | 0.00 | 0.03 | 0.03 | 45 | 1016.3 |
| 20260507020604 | 64 | 265 | 13.0 | 20.0 | 0.00 | 0.03 | 0.03 | 43 | 1016.2 |
| 20260507020057 | 64 | 281 | 12.0 | 20.0 | 0.00 | 0.03 | 0.03 | 43 | 1016.3 |
| 20260507015556 | 65 | 286 | 13.0 | 20.0 | 0.00 | 0.03 | 0.03 | 43 | 1016.3 |
| 20260507015056 | 65 | 289 | 12.0 | 20.0 | 0.00 | 0.03 | 0.03 | 43 | 1016.2 |
| 20260507014623 | 65 | 296 | 11.0 | 20.0 | 0.00 | 0.03 | 0.03 | 43 | 1016.3 |
| 20260507014100 | 65 | 272 | 12.0 | 21.0 | 0.00 | 0.03 | 0.03 | 42 | 1016.3 |
| 20260507013603 | 65 | 288 | 12.0 | 21.0 | 0.00 | 0.03 | 0.03 | 42 | 1016.3 |
| 20260507013100 | 65 | 281 | 12.0 | 21.0 | 0.00 | 0.03 | 0.03 | 43 | 1016.3 |
| 20260507012558 | 65 | 267 | 12.0 | 21.0 | 0.00 | 0.03 | 0.03 | 43 | 1016.2 |
| 20260507012057 | 66 | 291 | 12.0 | 23.0 | 0.00 | 0.03 | 0.03 | 43 | 1016.3 |
| 20260507011604 | 66 | 290 | 14.0 | 23.0 | 0.00 | 0.03 | 0.03 | 42 | 1016.2 |
| 20260507011057 | 66 | 283 | 13.0 | 22.0 | 0.00 | 0.03 | 0.03 | 41 | 1016.2 |
| 20260507010600 | 66 | 284 | 9.0 | 19.0 | 0.00 | 0.03 | 0.03 | 42 | 1016.1 |
| 20260507010112 | 66 | 302 | 12.0 | 21.0 | 0.00 | 0.03 | 0.03 | 42 | 1016.3 |
| 20260507005557 | 67 | 312 | 11.0 | 21.0 | 0.00 | 0.03 | 0.03 | 41 | 1016.3 |
| 20260507005100 | 67 | 295 | 13.0 | 21.0 | 0.00 | 0.03 | 0.03 | 40 | 1016.3 |
| 20260507004615 | 67 | 329 | 11.0 | 22.0 | 0.00 | 0.03 | 0.03 | 40 | 1016.2 |
| 20260507004057 | 68 | 317 | 12.0 | 22.0 | 0.00 | 0.03 | 0.03 | 39 | 1016.1 |
| 20260507003557 | 68 | 294 | 14.0 | 22.0 | 0.00 | 0.03 | 0.03 | 39 | 1016.2 |
| 20260507003059 | 68 | 288 | 12.0 | 19.0 | 0.00 | 0.03 | 0.03 | 39 | 1016.1 |
| 20260507002556 | 68 | 296 | 10.0 | 18.0 | 0.00 | 0.03 | 0.03 | 40 | 1016.2 |
| 20260507002058 | 69 | 320 | 10.0 | 18.0 | 0.00 | 0.03 | 0.03 | 40 | 1016.2 |
| 20260507001604 | 69 | 285 | 10.0 | 17.0 | 0.00 | 0.03 | 0.03 | 40 | 1016.1 |
| 20260507001059 | 69 | 295 | 9.0 | 16.0 | 0.00 | 0.03 | 0.03 | 38 | 1016.2 |
| 20260507000556 | 70 | 298 | 10.0 | 16.0 | 0.00 | 0.03 | 0.03 | 38 | 1016.2 |
| 20260507000059 | 70 | 270 | 8.0 | 15.0 | 0.00 | 0.03 | 0.03 | 37 | 1016.1 |
| 20260506235603 | 69 | 288 | 10.0 | 16.0 | 0.00 | 0.03 | 0.03 | 38 | 1016.2 |
| 20260506235100 | 69 | 290 | 10.0 | 19.0 | 0.00 | 0.03 | 0.03 | 39 | 1016.2 |
| 20260506234559 | 69 | 284 | 10.0 | 19.0 | 0.00 | 0.03 | 0.03 | 39 | 1016.2 |
| 20260506234100 | 69 | 287 | 10.0 | 18.0 | 0.00 | 0.03 | 0.03 | 38 | 1016.2 |
| 20260506233559 | 69 | 308 | 12.0 | 17.0 | 0.00 | 0.03 | 0.03 | 38 | 1016.2 |
| 20260506233100 | 70 | 298 | 11.0 | 19.0 | 0.00 | 0.03 | 0.03 | 37 | 1016.2 |
| 20260506232559 | 70 | 273 | 10.0 | 20.0 | 0.00 | 0.03 | 0.03 | 37 | 1016.2 |
| 20260506232059 | 70 | 279 | 11.0 | 21.0 | 0.00 | 0.03 | 0.03 | 36 | 1016.3 |
| 20260506231601 | 71 | 288 | 13.0 | 21.0 | 0.00 | 0.03 | 0.03 | 35 | 1016.3 |
| 20260506231105 | 71 | 302 | 13.0 | 21.0 | 0.00 | 0.03 | 0.03 | 34 | 1016.2 |
| 20260506230557 | 71 | 279 | 14.0 | 25.0 | 0.00 | 0.03 | 0.03 | 34 | 1016.2 |
| 20260506225556 | 72 | 306 | 16.0 | 26.0 | 0.00 | 0.03 | 0.03 | 32 | 1015.9 |
| 20260506225056 | 74 | 269 | 11.0 | 24.0 | 0.00 | 0.03 | 0.03 | 32 | 1015.9 |
| 20260506224558 | 74 | 299 | 15.0 | 27.0 | 0.00 | 0.03 | 0.03 | 32 | 1016.0 |
| 20260506224059 | 74 | 265 | 17.0 | 27.0 | 0.00 | 0.03 | 0.03 | 31 | 1016.1 |
| 20260506223600 | 74 | 296 | 14.0 | 27.0 | 0.00 | 0.03 | 0.03 | 29 | 1016.0 |
| 20260506223100 | 74 | 279 | 14.0 | 25.0 | 0.00 | 0.03 | 0.03 | 30 | 1016.1 |
| 20260506222600 | 74 | 284 | 16.0 | 25.0 | 0.00 | 0.03 | 0.03 | 31 | 1016.1 |
| 20260506222100 | 74 | 296 | 15.0 | 25.0 | 0.00 | 0.03 | 0.03 | 30 | 1016.1 |
| 20260506221558 | 75 | 310 | 13.0 | 23.0 | 0.00 | 0.03 | 0.03 | 31 | 1016.2 |
| 20260506221059 | 75 | 290 | 13.0 | 21.0 | 0.00 | 0.03 | 0.03 | 31 | 1016.1 |
| 20260506220601 | 75 | 271 | 14.0 | 20.0 | 0.00 | 0.03 | 0.03 | 30 | 1016.1 |
| 20260506220059 | 75 | 297 | 14.0 | 25.0 | 0.00 | 0.03 | 0.03 | 29 | 1016.0 |
| 20260506215559 | 75 | 266 | 12.0 | 25.0 | 0.00 | 0.03 | 0.03 | 31 | 1016.1 |
| 20260506215059 | 75 | 282 | 14.0 | 26.0 | 0.00 | 0.03 | 0.03 | 30 | 1016.0 |
| 20260506214605 | 75 | 273 | 13.0 | 26.0 | 0.00 | 0.03 | 0.03 | 32 | 1015.9 |
| 20260506214100 | 74 | 278 | 16.0 | 25.0 | 0.00 | 0.03 | 0.03 | 32 | 1016.0 |
| 20260506213601 | 74 | 311 | 15.0 | 25.0 | 0.00 | 0.03 | 0.03 | 34 | 1015.9 |
| 20260506213059 | 74 | 276 | 16.0 | 25.0 | 0.00 | 0.03 | 0.03 | 36 | 1016.1 |
| 20260506212559 | 73 | 260 | 14.0 | 21.0 | 0.00 | 0.03 | 0.03 | 39 | 1016.1 |
| 20260506212059 | 73 | 302 | 13.0 | 26.0 | 0.00 | 0.03 | 0.03 | 40 | 1016.1 |
| 20260506211605 | 73 | 283 | 11.0 | 26.0 | 0.00 | 0.03 | 0.03 | 41 | 1016.1 |
| 20260506211100 | 73 | 289 | 14.0 | 26.0 | 0.00 | 0.03 | 0.03 | 39 | 1016.1 |
| 20260506210559 | 74 | 278 | 13.0 | 22.0 | 0.00 | 0.03 | 0.03 | 41 | 1016.1 |
| 20260506210059 | 75 | 295 | 12.0 | 23.0 | 0.00 | 0.03 | 0.03 | 41 | 1016.0 |
| 20260506205558 | 74 | 263 | 12.0 | 23.0 | 0.00 | 0.03 | 0.03 | 42 | 1016.0 |
| 20260506205100 | 74 | 288 | 11.0 | 24.0 | 0.00 | 0.03 | 0.03 | 40 | 1016.0 |
| 20260506204600 | 74 | 261 | 13.0 | 24.0 | 0.00 | 0.03 | 0.03 | 42 | 1016.0 |
| 20260506204059 | 74 | 296 | 13.0 | 20.0 | 0.00 | 0.03 | 0.03 | 40 | 1016.0 |
| 20260506203556 | 75 | 275 | 12.0 | 21.0 | 0.00 | 0.03 | 0.03 | 37 | 1015.9 |
| 20260506203059 | 75 | 259 | 10.0 | 23.0 | 0.00 | 0.03 | 0.03 | 39 | 1015.9 |
| 20260506202557 | 74 | 285 | 13.0 | 23.0 | 0.00 | 0.03 | 0.03 | 38 | 1015.9 |
| 20260506202102 | 74 | 294 | 12.0 | 22.0 | 0.00 | 0.03 | 0.03 | 39 | 1015.9 |
| 20260506201559 | 75 | 277 | 14.0 | 22.0 | 0.00 | 0.03 | 0.03 | 37 | 1016.0 |
| 20260506201059 | 75 | 285 | 13.0 | 20.0 | 0.00 | 0.03 | 0.03 | 37 | 1015.8 |
| 20260506200559 | 75 | 322 | 9.0 | 19.0 | 0.00 | 0.03 | 0.03 | 39 | 1015.9 |
| 20260506200105 | 75 | 269 | 10.0 | 20.0 | 0.00 | 0.03 | 0.03 | 37 | 1015.9 |
| 20260506195559 | 75 | 255 | 9.0 | 20.0 | 0.00 | 0.03 | 0.03 | 33 | 1015.9 |
| 20260506195103 | 75 | 273 | 13.0 | 20.0 | 0.00 | 0.03 | 0.03 | 37 | 1015.9 |
| 20260506194607 | 74 | 281 | 8.0 | 20.0 | 0.00 | 0.03 | 0.03 | 39 | 1015.7 |
| 20260506194101 | 74 | 281 | 12.0 | 20.0 | 0.00 | 0.03 | 0.03 | 36 | 1015.9 |
| 20260506193600 | 75 | 279 | 10.0 | 19.0 | 0.00 | 0.03 | 0.03 | 36 | 1015.8 |
| 20260506193101 | 75 | 288 | 10.0 | 19.0 | 0.00 | 0.03 | 0.03 | 36 | 1015.8 |
| 20260506192600 | 75 | 223 | 8.0 | 17.0 | 0.00 | 0.03 | 0.03 | 36 | 1015.8 |
| 20260506192100 | 75 | 267 | 8.0 | 17.0 | 0.00 | 0.03 | 0.03 | 37 | 1015.9 |
| 20260506191609 | 75 | 276 | 9.0 | 18.0 | 0.00 | 0.03 | 0.03 | 36 | 1016.0 |
| 20260506191101 | 74 | 274 | 11.0 | 18.0 | 0.00 | 0.03 | 0.03 | 36 | 1016.0 |
| 20260506190600 | 75 | 302 | 10.0 | 18.0 | 0.00 | 0.03 | 0.03 | 35 | 1015.9 |
| 20260506190058 | 74 | 254 | 10.0 | 17.0 | 0.00 | 0.03 | 0.03 | 36 | 1015.9 |
| 20260506185559 | 74 | 223 | 9.0 | 16.0 | 0.00 | 0.03 | 0.03 | 35 | 1016.0 |
| 20260506185058 | 74 | 238 | 8.0 | 15.0 | 0.00 | 0.03 | 0.03 | 36 | 1016.0 |
| 20260506184558 | 74 | 282 | 9.0 | 15.0 | 0.00 | 0.03 | 0.03 | 36 | 1015.9 |
| 20260506184100 | 74 | 207 | 8.0 | 15.0 | 0.00 | 0.03 | 0.03 | 37 | 1015.8 |
| 20260506183559 | 74 | 223 | 8.0 | 15.0 | 0.00 | 0.03 | 0.03 | 38 | 1015.9 |
| 20260506183120 | 73 | 251 | 7.0 | 15.0 | 0.00 | 0.03 | 0.03 | 39 | 1015.9 |
| 20260506182559 | 73 | 255 | 9.0 | 15.0 | 0.00 | 0.03 | 0.03 | 38 | 1015.9 |
| 20260506182059 | 73 | 219 | 9.0 | 16.0 | 0.00 | 0.03 | 0.03 | 40 | 1016.0 |
| 20260506181602 | 72 | 243 | 9.0 | 16.0 | 0.00 | 0.03 | 0.03 | 42 | 1016.0 |
| 20260506181059 | 72 | 234 | 5.0 | 16.0 | 0.00 | 0.03 | 0.03 | 43 | 1016.1 |
| 20260506180557 | 72 | 229 | 8.0 | 16.0 | 0.00 | 0.03 | 0.03 | 42 | 1016.1 |
| 20260506180115 | 72 | 236 | 8.0 | 15.0 | 0.00 | 0.03 | 0.03 | 43 | 1016.1 |
| 20260506175600 | 71 | 288 | 7.0 | 20.0 | 0.00 | 0.03 | 0.03 | 44 | 1016.1 |
| 20260506175058 | 71 | 243 | 6.0 | 20.0 | 0.00 | 0.03 | 0.03 | 44 | 1016.2 |
| 20260506174556 | 71 | 230 | 10.0 | 20.0 | 0.00 | 0.03 | 0.03 | 43 | 1016.2 |
| 20260506174056 | 71 | 266 | 6.0 | 13.0 | 0.00 | 0.03 | 0.03 | 44 | 1016.2 |
| 20260506173556 | 70 | 203 | 7.0 | 15.0 | 0.03 | 0.03 | 0.03 | 43 | 1016.2 |
| 20260506173133 | 70 | 236 | 8.0 | 15.0 | 0.03 | 0.03 | 0.03 | 44 | 1016.3 |
| 20260506172557 | 70 | 247 | 7.0 | 15.0 | 0.03 | 0.03 | 0.03 | 46 | 1016.3 |
| 20260506172104 | 69 | 251 | 9.0 | 18.0 | 0.03 | 0.03 | 0.03 | 44 | 1016.3 |
| 20260506171557 | 69 | 273 | 7.0 | 18.0 | 0.03 | 0.03 | 0.03 | 44 | 1016.4 |
| 20260506171057 | 69 | 235 | 7.0 | 19.0 | 0.03 | 0.03 | 0.03 | 43 | 1016.4 |
| 20260506170558 | 69 | 254 | 9.0 | 19.0 | 0.03 | 0.03 | 0.03 | 44 | 1016.3 |
| 20260506165557 | 68 | 254 | 9.0 | 18.0 | 0.03 | 0.03 | 0.03 | 45 | 1016.2 |
| 20260506165057 | 67 | 265 | 9.0 | 15.0 | 0.03 | 0.03 | 0.03 | 45 | 1016.2 |
| 20260506164558 | 67 | 220 | 9.0 | 17.0 | 0.03 | 0.03 | 0.03 | 46 | 1016.1 |
| 20260506164056 | 67 | 233 | 8.0 | 17.0 | 0.03 | 0.03 | 0.03 | 48 | 1016.2 |
| 20260506163559 | 67 | 242 | 8.0 | 17.0 | 0.00 | 0.00 | 0.00 | 48 | 1016.2 |
| 20260506163104 | 67 | 232 | 8.0 | 15.0 | 0.00 | 0.00 | 0.00 | 48 | 1016.1 |
| 20260506162600 | 66 | 221 | 6.0 | 14.0 | 0.00 | 0.00 | 0.00 | 49 | 1016.0 |
| 20260506162056 | 66 | 256 | 9.0 | 17.0 | 0.00 | 0.00 | 0.00 | 50 | 1016.0 |
| 20260506161559 | 66 | 259 | 8.0 | 17.0 | 0.00 | 0.00 | 0.00 | 50 | 1016.0 |
| 20260506161055 | 65 | 219 | 8.0 | 17.0 | 0.00 | 0.00 | 0.00 | 51 | 1016.0 |
| 20260506160557 | 65 | 256 | 8.0 | 17.0 | 0.00 | 0.00 | 0.00 | 52 | 1016.0 |
| 20260506160057 | 64 | 219 | 10.0 | 17.0 | 0.00 | 0.00 | 0.00 | 51 | 1016.1 |
| 20260506155556 | 64 | 227 | 7.0 | 16.0 | 0.00 | 0.00 | 0.00 | 53 | 1016.1 |
| 20260506155056 | 64 | 232 | 7.0 | 16.0 | 0.00 | 0.00 | 0.00 | 54 | 1016.1 |
| 20260506154559 | 64 | 206 | 9.0 | 16.0 | 0.00 | 0.00 | 0.00 | 54 | 1016.2 |
| 20260506154057 | 63 | 242 | 8.0 | 16.0 | 0.00 | 0.00 | 0.00 | 57 | 1016.3 |
| 20260506153601 | 63 | 221 | 8.0 | 15.0 | 0.00 | 0.00 | 0.00 | 56 | 1016.2 |
| 20260506153059 | 63 | 217 | 7.0 | 14.0 | 0.00 | 0.00 | 0.00 | 58 | 1016.1 |
| 20260506152556 | 63 | 200 | 7.0 | 14.0 | 0.00 | 0.00 | 0.00 | 57 | 1016.2 |
| 20260506152056 | 63 | 227 | 7.0 | 14.0 | 0.00 | 0.00 | 0.00 | 58 | 1016.2 |
| 20260506151558 | 62 | 227 | 7.0 | 14.0 | 0.00 | 0.00 | 0.00 | 58 | 1016.2 |
| 20260506151057 | 62 | 215 | 5.0 | 14.0 | 0.00 | 0.00 | 0.00 | 58 | 1016.3 |
| 20260506150559 | 62 | 243 | 7.0 | 14.0 | 0.00 | 0.00 | 0.00 | 59 | 1016.2 |
| 20260506150059 | 62 | 217 | 5.0 | 10.0 | 0.00 | 0.00 | 0.00 | 59 | 1016.2 |
| 20260506145600 | 62 | 220 | 5.0 | 10.0 | 0.00 | 0.00 | 0.00 | 60 | 1016.2 |
| 20260506145059 | 61 | 222 | 5.0 | 10.0 | 0.00 | 0.00 | 0.00 | 61 | 1016.2 |
| 20260506144608 | 61 | 263 | 5.0 | 10.0 | 0.00 | 0.00 | 0.00 | 62 | 1016.2 |
| 20260506144056 | 60 | 217 | 4.0 | 9.0 | 0.00 | 0.00 | 0.00 | 62 | 1016.1 |
| 20260506143557 | 60 | 229 | 4.0 | 9.0 | 0.00 | 0.00 | 0.00 | 62 | 1016.1 |
| 20260506143100 | 60 | 229 | 4.0 | 8.0 | 0.00 | 0.00 | 0.00 | 63 | 1016.1 |
| 20260506142556 | 59 | 232 | 4.0 | 8.0 | 0.00 | 0.00 | 0.00 | 63 | 1015.9 |
| 20260506142056 | 59 | 225 | 3.0 | 7.0 | 0.00 | 0.00 | 0.00 | 64 | 1015.9 |
| 20260506141557 | 59 | 227 | 5.0 | 7.0 | 0.00 | 0.00 | 0.00 | 64 | 1016.0 |
| 20260506141059 | 58 | 222 | 4.0 | 7.0 | 0.00 | 0.00 | 0.00 | 65 | 1015.8 |
| 20260506140556 | 58 | 222 | 4.0 | 7.0 | 0.00 | 0.00 | 0.00 | 65 | 1015.8 |